EW9749 Weather Reports


Display with metric or nautical units.
time (UTC)temp
F
wind
direction
speed
MPH
gust
MPH
rain 1hr
in
rain 24hr
in
rain mn
in
humidity
%
barometer
mb
20190719141029 51 252 5.0 12.0 0.00 0.00 0.00 64 1007.7
20190719140534 51 246 6.0 12.0 0.00 0.00 0.00 64 1007.6
20190719140131 51 233 6.0 12.0 0.00 0.00 0.00 63 1007.5
20190719135537 51 266 6.0 12.0 0.00 0.00 0.00 63 1007.5
20190719135028 51 169 7.0 12.0 0.00 0.00 0.00 65 1007.4
20190719134544 51 238 6.0 11.0 0.00 0.00 0.00 65 1007.4
20190719134033 50 245 6.0 14.0 0.00 0.00 0.00 66 1007.3
20190719133532 50 229 8.0 14.0 0.00 0.00 0.00 67 1007.2
20190719133042 50 226 8.0 15.0 0.00 0.00 0.00 67 1007.2
20190719132533 49 226 6.0 15.0 0.00 0.00 0.00 68 1007.1
20190719132029 49 240 6.0 12.0 0.00 0.00 0.00 69 1007.1
20190719131546 49 176 5.0 10.0 0.00 0.00 0.00 70 1007.1
20190719131035 48 267 5.0 11.0 0.00 0.00 0.00 71 1007.2
20190719130532 48 222 6.0 12.0 0.00 0.00 0.00 72 1007.2
20190719130041 47 225 5.0 12.0 0.00 0.00 0.00 73 1007.2
20190719125533 47 221 4.0 11.0 0.00 0.00 0.00 74 1007.2
20190719125025 47 224 5.0 12.0 0.00 0.00 0.00 73 1007.2
20190719124536 47 224 5.0 12.0 0.00 0.00 0.00 74 1007.2
20190719124028 46 191 4.0 12.0 0.00 0.00 0.00 75 1007.2
20190719123532 46 210 4.0 10.0 0.00 0.00 0.00 76 1007.1
20190719123038 46 238 6.0 12.0 0.00 0.00 0.00 76 1007.1
20190719122533 46 212 5.0 12.0 0.00 0.00 0.00 77 1007.0
20190719122028 45 203 4.0 11.0 0.00 0.00 0.00 78 1006.9
20190719121740 45 212 5.0 11.0 0.00 0.00 0.00 79 1006.9
20190719121029 45 248 4.0 10.0 0.00 0.00 0.00 80 1006.8
20190719120528 44 167 3.0 10.0 0.00 0.00 0.00 81 1006.9
20190719120044 44 196 5.0 11.0 0.00 0.00 0.00 81 1006.9
20190719115528 44 235 5.0 14.0 0.00 0.00 0.00 81 1006.8
20190719115041 44 226 5.0 14.0 0.00 0.00 0.00 82 1006.8
20190719114552 44 256 7.0 11.0 0.00 0.00 0.00 82 1006.8
20190719114027 44 213 5.0 11.0 0.00 0.00 0.00 83 1006.9
20190719113529 44 215 5.0 10.0 0.00 0.00 0.00 83 1006.9
20190719113112 45 172 4.0 9.0 0.00 0.00 0.00 83 1006.9
20190719112528 45 203 4.0 10.0 0.00 0.00 0.00 83 1006.9
20190719112033 45 210 4.0 10.0 0.00 0.00 0.00 83 1006.9
20190719111603 45 214 4.0 10.0 0.00 0.00 0.00 83 1006.7
20190719111028 45 221 4.0 10.0 0.00 0.00 0.00 83 1006.7
20190719110528 45 208 4.0 10.0 0.00 0.00 0.00 84 1006.7
20190719110106 45 219 5.0 9.0 0.00 0.00 0.00 84 1006.7
20190719105525 45 240 3.0 10.0 0.00 0.00 0.00 84 1006.7
20190719105032 45 255 5.0 10.0 0.00 0.00 0.00 85 1006.7
20190719104617 45 240 4.0 10.0 0.00 0.00 0.00 85 1006.7
20190719104028 45 218 5.0 10.0 0.00 0.00 0.00 85 1006.7
20190719103528 45 218 6.0 10.0 0.00 0.00 0.00 85 1006.6
20190719103134 45 249 5.0 10.0 0.00 0.00 0.00 85 1006.6
20190719102537 45 222 5.0 10.0 0.00 0.00 0.00 84 1006.6
20190719102035 45 254 5.0 9.0 0.00 0.00 0.00 82 1006.6
20190719101532 45 221 4.0 8.0 0.00 0.00 0.00 82 1006.5
20190719101033 46 204 4.0 9.0 0.00 0.00 0.00 81 1006.6
20190719100534 46 213 6.0 9.0 0.00 0.00 0.00 80 1006.7
20190719100103 47 231 5.0 9.0 0.00 0.00 0.00 80 1006.6
20190719095526 47 226 4.0 9.0 0.00 0.00 0.00 80 1006.6
20190719095029 47 212 4.0 8.0 0.00 0.00 0.00 81 1006.6
20190719094555 47 207 5.0 8.0 0.00 0.00 0.00 81 1006.6
20190719094035 47 212 4.0 8.0 0.00 0.00 0.00 81 1006.7
20190719093533 47 250 3.0 9.0 0.00 0.00 0.00 81 1006.6
20190719093042 47 217 4.0 9.0 0.00 0.00 0.00 81 1006.6
20190719092527 47 195 4.0 7.0 0.00 0.00 0.00 82 1006.6
20190719092028 47 245 3.0 8.0 0.00 0.00 0.00 82 1006.7
20190719091028 47 203 3.0 8.0 0.00 0.00 0.00 82 1006.7
20190719090532 47 226 4.0 8.0 0.00 0.00 0.00 83 1006.7
20190719090137 47 231 3.0 9.0 0.00 0.00 0.00 83 1006.7
20190719085532 47 179 5.0 9.0 0.00 0.00 0.00 83 1006.8
20190719085033 47 228 2.0 4.0 0.00 0.00 0.00 83 1006.7
20190719084539 47 237 1.0 5.0 0.00 0.00 0.00 84 1006.7
20190719084033 47 229 2.0 7.0 0.00 0.00 0.00 84 1006.7
20190719083539 47 195 4.0 7.0 0.00 0.00 0.00 84 1006.7
20190719083107 47 224 3.0 7.0 0.00 0.00 0.00 83 1006.8
20190719082544 47 194 3.0 7.0 0.00 0.00 0.00 83 1006.9
20190719082032 47 210 2.0 5.0 0.00 0.00 0.00 82 1006.9
20190719081539 48 252 3.0 7.0 0.00 0.00 0.00 82 1006.9
20190719081028 48 228 2.0 7.0 0.00 0.00 0.00 82 1007.0
20190719080533 48 232 4.0 7.0 0.00 0.00 0.00 82 1007.0
20190719080052 48 217 3.0 6.0 0.00 0.00 0.00 82 1007.1
20190719075528 48 219 1.0 5.0 0.00 0.00 0.00 82 1007.1
20190719075029 48 231 2.0 6.0 0.00 0.00 0.00 82 1007.1
20190719074600 48 256 3.0 6.0 0.00 0.00 0.00 82 1007.0
20190719074031 48 228 1.0 6.0 0.00 0.00 0.00 81 1007.1
20190719073540 48 230 2.0 6.0 0.00 0.00 0.00 82 1007.0
20190719073102 48 243 3.0 6.0 0.00 0.00 0.00 82 1007.1
20190719072531 48 231 4.0 6.0 0.00 0.00 0.00 81 1007.1
20190719072026 48 208 3.0 6.0 0.00 0.00 0.00 81 1007.1
20190719071551 48 236 3.0 7.0 0.00 0.00 0.00 81 1007.1
20190719071027 48 226 3.0 7.0 0.00 0.00 0.00 82 1007.2
20190719070529 48 250 2.0 8.0 0.00 0.00 0.00 82 1007.2
20190719070129 48 244 4.0 8.0 0.00 0.00 0.00 82 1007.2
20190719065527 48 221 5.0 8.0 0.00 0.00 0.00 82 1007.4
20190719065033 48 173 4.0 8.0 0.00 0.00 0.00 81 1007.3
20190719064609 48 229 4.0 8.0 0.00 0.00 0.00 81 1007.3
20190719064028 48 263 4.0 9.0 0.00 0.00 0.00 82 1007.3
20190719063525 48 214 5.0 9.0 0.00 0.00 0.00 81 1007.3
20190719063038 48 225 3.0 7.0 0.00 0.00 0.00 81 1007.4
20190719062534 48 243 2.0 6.0 0.00 0.00 0.00 81 1007.4
20190719062027 49 219 2.0 6.0 0.00 0.00 0.00 80 1007.3
20190719061545 49 245 3.0 7.0 0.00 0.00 0.00 80 1007.1
20190719061029 49 225 4.0 7.0 0.00 0.00 0.00 80 1007.2
20190719060535 49 197 3.0 7.0 0.00 0.00 0.00 80 1007.1
20190719060105 49 204 3.0 7.0 0.00 0.00 0.00 80 1007.1
20190719055529 49 210 4.0 7.0 0.00 0.00 0.00 80 1007.0
20190719055036 50 218 4.0 7.0 0.00 0.00 0.00 79 1007.1
20190719054543 50 233 3.0 6.0 0.00 0.00 0.00 79 1007.0
20190719054030 50 226 4.0 7.0 0.00 0.00 0.00 78 1007.1
20190719053526 51 192 3.0 7.0 0.00 0.00 0.00 77 1006.9
20190719053045 51 242 4.0 7.0 0.00 0.00 0.00 78 1007.2
20190719052528 50 245 4.0 7.0 0.00 0.00 0.00 78 1007.2
20190719052028 50 225 3.0 7.0 0.00 0.00 0.00 78 1007.1
20190719051621 51 212 3.0 7.0 0.00 0.00 0.00 78 1007.1
20190719051028 51 224 3.0 7.0 0.00 0.00 0.00 78 1007.0
20190719050532 51 221 2.0 6.0 0.00 0.00 0.00 77 1007.0
20190719050052 51 201 3.0 6.0 0.00 0.00 0.00 77 1006.9
20190719045531 51 228 2.0 6.0 0.00 0.00 0.00 76 1006.9
20190719045032 52 231 3.0 6.0 0.00 0.00 0.00 76 1007.1
20190719044641 52 218 4.0 6.0 0.00 0.00 0.00 75 1007.0
20190719044028 52 214 4.0 6.0 0.00 0.00 0.00 75 1007.0
20190719043534 52 207 3.0 5.0 0.00 0.00 0.00 74 1006.9
20190719043057 53 231 2.0 5.0 0.00 0.00 0.00 74 1006.9
20190719042526 53 257 2.0 4.0 0.00 0.00 0.00 74 1007.1
20190719042027 53 233 2.0 3.0 0.00 0.00 0.00 73 1007.1
20190719041533 53 245 1.0 4.0 0.00 0.00 0.00 73 1007.0
20190719041031 53 266 2.0 4.0 0.00 0.00 0.00 72 1007.0
20190719040528 54 212 2.0 7.0 0.00 0.00 0.00 71 1007.1
20190719040052 54 221 3.0 7.0 0.00 0.00 0.00 70 1006.9
20190719035527 54 215 2.0 6.0 0.00 0.00 0.00 70 1006.7
20190719035028 54 194 3.0 6.0 0.00 0.00 0.00 69 1006.5
20190719034534 55 205 3.0 6.0 0.00 0.00 0.00 69 1006.4
20190719034031 55 208 3.0 6.0 0.00 0.00 0.00 68 1006.4
20190719033534 55 229 2.0 5.0 0.00 0.00 0.00 67 1006.4
20190719033046 56 215 3.0 5.0 0.00 0.00 0.00 65 1006.3
20190719032527 56 211 3.0 7.0 0.00 0.00 0.00 65 1006.2
20190719032032 56 249 3.0 7.0 0.00 0.00 0.00 65 1006.2
20190719031658 56 226 3.0 7.0 0.00 0.00 0.00 64 1005.9
20190719031027 57 233 2.0 7.0 0.00 0.00 0.00 63 1005.9
20190719030527 57 245 3.0 7.0 0.00 0.00 0.00 62 1006.0
20190719030033 57 239 3.0 7.0 0.00 0.00 0.00 62 1006.0
20190719025531 57 228 4.0 6.0 0.00 0.00 0.00 61 1005.9
20190719025032 57 257 2.0 7.0 0.00 0.00 0.00 61 1005.9
20190719024613 57 277 3.0 7.0 0.00 0.00 0.00 61 1005.9
20190719024024 57 314 4.0 13.0 0.00 0.00 0.00 61 1005.8
20190719023526 57 308 6.0 13.0 0.00 0.00 0.00 61 1005.7
20190719023046 57 289 6.0 15.0 0.00 0.00 0.00 61 1006.1
20190719022538 57 315 7.0 16.0 0.00 0.00 0.00 60 1006.2
20190719022037 57 325 10.0 19.0 0.00 0.00 0.00 60 1006.1
20190719021558 57 309 12.0 19.0 0.00 0.00 0.00 59 1006.2
20190719021033 57 326 12.0 22.0 0.00 0.00 0.00 58 1006.2
20190719020536 58 298 11.0 23.0 0.00 0.00 0.00 57 1006.1
20190719020102 58 288 13.0 25.0 0.00 0.00 0.00 56 1006.2
20190719015529 59 311 16.0 28.0 0.00 0.00 0.00 56 1005.9
20190719015027 59 311 17.0 32.0 0.00 0.00 0.00 58 1005.8
20190719014545 60 308 17.0 32.0 0.00 0.00 0.00 55 1005.8
20190719014027 61 326 20.0 37.0 0.00 0.00 0.00 53 1005.7
20190719013531 61 287 20.0 37.0 0.00 0.00 0.00 53 1005.4
20190719013100 62 338 18.0 30.0 0.00 0.00 0.00 53 1005.2
20190719012533 63 341 18.0 34.0 0.00 0.00 0.00 52 1004.8
20190719012028 65 314 20.0 39.0 0.00 0.00 0.00 49 1004.3
20190719011612 67 311 18.0 39.0 0.00 0.00 0.00 43 1003.8
20190719011025 70 317 12.0 28.0 0.00 0.00 0.00 33 1003.4
20190719010529 71 290 14.0 27.0 0.00 0.00 0.00 32 1003.2
20190719010123 71 280 13.0 25.0 0.00 0.00 0.00 31 1003.1
20190719005527 72 264 10.0 18.0 0.00 0.00 0.00 31 1003.1
20190719005030 72 260 12.0 18.0 0.00 0.00 0.00 30 1003.3
20190719004600 72 205 5.0 10.0 0.00 0.00 0.00 35 1003.5
20190719004032 71 278 3.0 8.0 0.00 0.00 0.00 35 1003.4
20190719003531 70 262 4.0 11.0 0.00 0.00 0.00 35 1003.2
20190719003121 70 311 7.0 13.0 0.00 0.00 0.00 36 1003.1
20190719002533 70 319 8.0 13.0 0.00 0.00 0.00 35 1003.0
20190719002032 70 355 5.0 15.0 0.00 0.00 0.00 38 1003.1
20190719001614 70 317 8.0 15.0 0.00 0.00 0.00 38 1003.0
20190719001025 70 308 7.0 15.0 0.00 0.00 0.00 38 1002.8
20190719000527 71 340 8.0 16.0 0.00 0.00 0.00 37 1002.6
20190719000116 71 326 9.0 18.0 0.00 0.00 0.00 37 1002.5
20190718235532 72 345 12.0 28.0 0.00 0.00 0.00 35 1002.2
20190718235027 75 305 20.0 29.0 0.00 0.00 0.00 32 1001.9
20190718234550 76 248 17.0 29.0 0.00 0.00 0.00 23 1001.6
20190718234026 76 240 17.0 25.0 0.00 0.00 0.00 24 1001.5
20190718233538 75 253 15.0 28.0 0.00 0.00 0.00 24 1001.5
20190718233058 75 245 16.0 28.0 0.00 0.00 0.00 22 1001.5
20190718232532 75 274 16.0 26.0 0.00 0.00 0.00 23 1001.5
20190718232031 75 266 15.0 26.0 0.00 0.00 0.00 23 1001.4
20190718231644 75 281 15.0 26.0 0.00 0.00 0.00 23 1001.4
20190718231026 75 203 14.0 22.0 0.00 0.00 0.00 23 1001.2
20190718230530 75 250 15.0 26.0 0.00 0.00 0.00 22 1001.4
20190718230145 75 218 13.0 26.0 0.00 0.00 0.00 23 1001.4
20190718225525 75 232 14.0 25.0 0.00 0.00 0.00 25 1001.5
20190718225025 75 221 14.0 24.0 0.00 0.00 0.00 25 1001.4
20190718224545 75 205 13.0 21.0 0.00 0.00 0.00 26 1001.5
20190718224029 75 224 9.0 23.0 0.00 0.00 0.00 27 1001.5
20190718223533 75 224 14.0 30.0 0.00 0.00 0.00 26 1001.6
20190718223047 75 260 15.0 30.0 0.00 0.00 0.00 26 1001.5
20190718222526 75 276 12.0 22.0 0.00 0.00 0.00 28 1001.3
20190718222031 75 209 13.0 28.0 0.00 0.00 0.00 27 1001.3
20190718221603 75 255 14.0 31.0 0.00 0.00 0.00 27 1001.3
20190718221033 75 236 14.0 34.0 0.00 0.00 0.00 27 1001.3
20190718220534 75 229 15.0 34.0 0.00 0.00 0.00 27 1001.2
20190718220036 76 197 12.0 32.0 0.00 0.00 0.00 28 1001.1
20190718215530 75 255 16.0 32.0 0.00 0.00 0.00 26 1001.1
20190718215036 75 276 13.0 29.0 0.00 0.00 0.00 26 1001.1
20190718214551 75 253 17.0 29.0 0.00 0.00 0.00 24 1001.0
20190718214029 75 245 15.0 33.0 0.00 0.00 0.00 24 1001.0
20190718213533 75 273 18.0 33.0 0.00 0.00 0.00 24 1001.0
20190718213053 75 278 14.0 27.0 0.00 0.00 0.00 24 1001.0
20190718212536 75 226 13.0 28.0 0.00 0.00 0.00 25 1000.9
20190718212030 75 236 18.0 28.0 0.00 0.00 0.00 23 1001.0
20190718211614 75 255 18.0 27.0 0.00 0.00 0.00 23 1001.1
20190718211029 75 252 17.0 26.0 0.00 0.00 0.00 23 1001.2
20190718210529 75 256 13.0 27.0 0.00 0.00 0.00 24 1001.0
20190718210112 75 233 13.0 27.0 0.00 0.00 0.00 23 1001.1
20190718205532 75 281 12.0 21.0 0.00 0.00 0.00 25 1001.0
20190718205028 75 257 11.0 25.0 0.00 0.00 0.00 26 1001.0
20190718204559 74 280 13.0 26.0 0.00 0.00 0.00 24 1000.9
20190718204030 74 262 13.0 26.0 0.00 0.00 0.00 26 1001.1
20190718203529 74 287 16.0 26.0 0.00 0.00 0.00 27 1001.2
20190718203059 73 252 16.0 26.0 0.00 0.00 0.00 25 1001.1
20190718202530 73 262 17.0 29.0 0.00 0.00 0.00 27 1001.1
20190718202027 73 295 18.0 29.0 0.00 0.00 0.00 25 1001.1
20190718201638 73 241 18.0 27.0 0.00 0.00 0.00 25 1001.1
20190718201029 73 262 14.0 24.0 0.00 0.00 0.00 28 1001.1
20190718200529 73 257 13.0 24.0 0.00 0.00 0.00 28 1001.0
20190718200131 73 264 15.0 24.0 0.00 0.00 0.00 27 1001.0
20190718195527 74 245 15.0 27.0 0.00 0.00 0.00 26 1000.9
20190718195028 74 278 16.0 27.0 0.00 0.00 0.00 27 1000.9
20190718194542 74 278 15.0 28.0 0.00 0.00 0.00 26 1001.0
20190718194032 74 245 19.0 30.0 0.00 0.00 0.00 26 1000.9
20190718193531 74 273 16.0 30.0 0.00 0.00 0.00 28 1000.9
20190718193122 73 264 15.0 30.0 0.00 0.00 0.00 27 1000.9
20190718192532 73 288 18.0 30.0 0.00 0.00 0.00 28 1001.0
20190718192037 73 238 17.0 28.0 0.00 0.00 0.00 29 1001.0
20190718191029 72 260 15.0 30.0 0.00 0.00 0.00 34 1000.9
20190718190529 72 285 19.0 33.0 0.00 0.00 0.00 33 1001.0
20190718190207 72 249 18.0 33.0 0.00 0.00 0.00 33 1001.0
20190718185532 72 242 15.0 29.0 0.00 0.00 0.00 34 1001.0
20190718185030 72 257 14.0 26.0 0.00 0.00 0.00 34 1000.9
20190718184608 72 274 16.0 27.0 0.00 0.00 0.00 34 1001.0
20190718184034 72 278 16.0 28.0 0.00 0.00 0.00 36 1000.9
20190718183530 72 252 14.0 29.0 0.00 0.00 0.00 36 1001.0
20190718183244 72 221 18.0 30.0 0.00 0.00 0.00 37 1000.9
20190718182530 72 262 18.0 30.0 0.00 0.00 0.00 37 1001.0
20190718182029 72 256 17.0 30.0 0.00 0.00 0.00 38 1001.0
20190718181712 71 256 17.0 30.0 0.00 0.00 0.00 41 1001.1
20190718181029 71 252 17.0 30.0 0.00 0.00 0.00 42 1001.1
20190718180534 71 255 19.0 29.0 0.00 0.00 0.00 41 1001.2
20190718180155 72 277 18.0 27.0 0.00 0.00 0.00 42 1001.0
20190718175534 72 282 16.0 27.0 0.00 0.00 0.00 40 1000.7
20190718175029 73 250 15.0 25.0 0.00 0.00 0.00 38 1000.8
20190718174542 73 285 16.0 28.0 0.00 0.00 0.00 38 1000.6
20190718174029 74 284 18.0 29.0 0.00 0.00 0.00 36 1000.5
20190718173529 74 253 16.0 29.0 0.00 0.00 0.00 36 1000.5
20190718173115 74 227 15.0 23.0 0.00 0.00 0.00 36 1000.5
20190718172529 73 252 11.0 24.0 0.00 0.00 0.00 39 1000.6
20190718172034 73 252 16.0 24.0 0.00 0.00 0.00 36 1000.6
20190718171619 72 229 10.0 21.0 0.00 0.00 0.00 39 1000.6
20190718171030 72 248 13.0 20.0 0.00 0.00 0.00 39 1000.7
20190718170528 72 233 11.0 23.0 0.00 0.00 0.00 40 1000.6
20190718170130 72 253 15.0 25.0 0.00 0.00 0.00 39 1000.5
20190718165529 72 256 14.0 25.0 0.00 0.00 0.00 39 1000.6
20190718165029 72 273 13.0 22.0 0.00 0.00 0.00 39 1000.5
20190718164617 72 212 11.0 18.0 0.00 0.00 0.00 41 1000.7
20190718164029 72 312 10.0 17.0 0.00 0.00 0.00 42 1000.6
20190718163531 71 274 10.0 19.0 0.00 0.00 0.00 43 1000.9
20190718163111 71 252 12.0 19.0 0.00 0.00 0.00 44 1001.0
20190718162528 70 240 11.0 19.0 0.00 0.00 0.00 44 1001.0
20190718162040 70 281 10.0 19.0 0.00 0.00 0.00 46 1001.0
20190718161714 70 255 10.0 20.0 0.00 0.00 0.00 45 1001.0
20190718161033 70 232 10.0 22.0 0.00 0.00 0.00 47 1001.0
20190718160529 70 223 11.0 23.0 0.00 0.00 0.00 45 1001.0
20190718160110 70 269 11.0 23.0 0.00 0.00 0.00 44 1001.0
20190718155532 71 234 12.0 25.0 0.00 0.00 0.00 42 1001.1
20190718155026 71 255 16.0 25.0 0.00 0.00 0.00 42 1001.1
20190718154625 71 259 11.0 20.0 0.00 0.00 0.00 42 1001.1
20190718154032 71 262 11.0 19.0 0.00 0.00 0.00 44 1001.1
20190718153533 70 245 11.0 20.0 0.00 0.00 0.00 45 1001.0
20190718153052 70 252 12.0 21.0 0.00 0.00 0.00 44 1001.0
20190718152534 69 265 12.0 21.0 0.00 0.00 0.00 45 1001.0
20190718152036 69 252 10.0 21.0 0.00 0.00 0.00 46 1001.1
20190718151615 69 269 13.0 19.0 0.00 0.00 0.00 46 1001.1
20190718151027 69 203 10.0 17.0 0.00 0.00 0.00 46 1001.1
20190718150532 68 262 6.0 15.0 0.00 0.00 0.00 51 1001.0
20190718150126 68 257 8.0 15.0 0.00 0.00 0.00 51 1001.2
20190718145528 67 262 8.0 17.0 0.00 0.00 0.00 52 1001.2
20190718145027 67 293 8.0 17.0 0.00 0.00 0.00 53 1001.2
20190718144557 66 233 10.0 18.0 0.00 0.00 0.00 54 1001.2
20190718144032 66 233 9.0 18.0 0.00 0.00 0.00 53 1001.2
20190718143528 66 252 8.0 16.0 0.00 0.00 0.00 55 1001.4
20190718143110 65 239 6.0 16.0 0.00 0.00 0.00 55 1001.4
20190718142535 65 235 8.0 16.0 0.00 0.00 0.00 55 1001.2
20190718142027 64 213 9.0 16.0 0.00 0.00 0.00 56 1001.2
20190718141621 64 261 7.0 16.0 0.00 0.00 0.00 56 1001.1